When you browse on this site, cookies collect data to enhance your experience and personalize the content and advertising you see.
Visit our Privacy Policy to learn more. By continuing to use the site, you agree to this use of cookies and data.
  • In United Kingdom
  • List of Countries
  • For 7 days
  • Water Temperature
  • Satellite Maps
  • Weather Map
  • Weather Widgets
  • user-avatar
    Login

    Hourly Weather Chakhansur

    Today, 23 January, Wednesday

    Time Temperature Precipitation Wind Pressure Humidity
    00:00 +7°C° 0 mm 0 mps 720 mmHg 30%
    01:00 +6°C° 0 mm 0 mps 720 mmHg 31%
    02:00 +6°C° 0 mm 0 mps 720 mmHg 31%
    03:00 +6°C° 0 mm 0 mps 720 mmHg 32%
    04:00 +5°C° 0 mm 0 mps 720 mmHg 33%
    05:00 +5°C° 0 mm 0 mps 720 mmHg 33%
    06:00 +6°C° 0 mm 1 mps 721 mmHg 33%
    07:00 +6°C° 0 mm 1 mps 721 mmHg 33%
    08:00 +8°C° 0 mm 1 mps 721 mmHg 29%
    09:00 +10°C° 0 mm 1 mps 722 mmHg 25%
    10:00 +12°C° 0 mm 1 mps 722 mmHg 21%
    11:00 +13°C° 0 mm 1 mps 722 mmHg 20%
    12:00 +14°C° 0 mm 1 mps 722 mmHg 18%
    13:00 +15°C° 0 mm 1 mps 721 mmHg 17%
    14:00 +15°C° 0 mm 1 mps 721 mmHg 16%
    15:00 +15°C° 0 mm 1 mps 721 mmHg 16%
    16:00 +15°C° 0 mm 1 mps 721 mmHg 15%
    17:00 +15°C° 0 mm 2 mps 721 mmHg 16%
    18:00 +14°C° 0 mm 2 mps 721 mmHg 18%
    19:00 +13°C° 0 mm 2 mps 722 mmHg 19%
    20:00 +12°C° 0 mm 2 mps 722 mmHg 19%
    21:00 +12°C° 0 mm 2 mps 722 mmHg 20%
    22:00 +12°C° 0 mm 2 mps 723 mmHg 21%
    23:00 +10°C° 0 mm 2 mps 723 mmHg 22%

    Tomorrow, 24 January, Thursday

    Time Temperature Precipitation Wind Pressure Humidity
    00:00 +10°C° 0 mm 2 mps 723 mmHg 22%
    01:00 +10°C° 0 mm 2 mps 723 mmHg 23%
    02:00 +10°C° 0 mm 2 mps 723 mmHg 23%
    03:00 +9°C° 0 mm 2 mps 723 mmHg 24%
    04:00 +9°C° 0 mm 2 mps 723 mmHg 24%
    05:00 +9°C° 0 mm 2 mps 724 mmHg 25%
    06:00 +8°C° 0 mm 2 mps 724 mmHg 26%
    07:00 +8°C° 0 mm 2 mps 724 mmHg 27%
    08:00 +9°C° 0 mm 2 mps 725 mmHg 24%
    09:00 +12°C° 0 mm 2 mps 725 mmHg 22%
    10:00 +13°C° 0 mm 2 mps 726 mmHg 19%
    11:00 +14°C° 0 mm 1 mps 725 mmHg 18%
    12:00 +15°C° 0 mm 1 mps 725 mmHg 17%
    13:00 +16°C° 0 mm 1 mps 724 mmHg 16%
    14:00 +16°C° 0 mm 1 mps 724 mmHg 15%
    15:00 +16°C° 0 mm 1 mps 724 mmHg 15%
    16:00 +18°C° 0 mm 1 mps 723 mmHg 15%
    17:00 +15°C° 0 mm 1 mps 724 mmHg 16%
    18:00 +14°C° 0 mm 1 mps 724 mmHg 18%
    19:00 +13°C° 0 mm 1 mps 724 mmHg 20%
    20:00 +13°C° 0 mm 1 mps 724 mmHg 21%
    21:00 +12°C° 0 mm 1 mps 724 mmHg 22%
    22:00 +11°C° 0 mm 1 mps 724 mmHg 23%
    23:00 +11°C° 0 mm 1 mps 724 mmHg 24%

    Day after tomorrow, 25 January, Friday

    Time Temperature Precipitation Wind Pressure Humidity
    00:00 +10°C° 0 mm 1 mps 724 mmHg 25%
    01:00 +10°C° 0 mm 1 mps 724 mmHg 26%
    02:00 +10°C° 0 mm 1 mps 723 mmHg 26%
    03:00 +9°C° 0 mm 1 mps 723 mmHg 27%
    04:00 +9°C° 0 mm 1 mps 723 mmHg 28%
    05:00 +9°C° 0 mm 1 mps 723 mmHg 28%
    06:00 +8°C° 0 mm 2 mps 723 mmHg 29%
    07:00 +8°C° 0 mm 2 mps 723 mmHg 29%
    08:00 +9°C° 0 mm 2 mps 724 mmHg 26%
    09:00 +12°C° 0 mm 2 mps 724 mmHg 23%
    10:00 +14°C° 0 mm 2 mps 724 mmHg 19%
    11:00 +15°C° 0 mm 2 mps 724 mmHg 18%
    12:00 +16°C° 0 mm 2 mps 723 mmHg 16%
    13:00 +18°C° 0 mm 1 mps 723 mmHg 14%
    14:00 +18°C° 0 mm 1 mps 722 mmHg 14%
    15:00 +19°C° 0 mm 1 mps 722 mmHg 13%
    16:00 +19°C° 0 mm 1 mps 722 mmHg 13%
    17:00 +18°C° 0 mm 1 mps 722 mmHg 14%
    18:00 +16°C° 0 mm 2 mps 722 mmHg 15%
    19:00 +15°C° 0 mm 2 mps 723 mmHg 16%
    20:00 +14°C° 0 mm 2 mps 723 mmHg 17%
    21:00 +13°C° 0 mm 3 mps 723 mmHg 17%
    22:00 +12°C° 0 mm 3 mps 723 mmHg 18%
    23:00 +12°C° 0 mm 3 mps 722 mmHg 18%

    26 January, Saturday

    Time Temperature Precipitation Wind Pressure Humidity
    00:00 +11°C° 0 mm 3 mps 722 mmHg 19%
    01:00 +11°C° 0 mm 3 mps 722 mmHg 19%
    02:00 +11°C° 0 mm 3 mps 722 mmHg 20%
    03:00 +10°C° 0 mm 3 mps 722 mmHg 20%
    04:00 +9°C° 0 mm 3 mps 721 mmHg 20%
    05:00 +9°C° 0 mm 3 mps 722 mmHg 21%
    06:00 +9°C° 0 mm 3 mps 722 mmHg 21%
    07:00 +9°C° 0 mm 3 mps 722 mmHg 22%
    08:00 +11°C° 0 mm 3 mps 723 mmHg 20%
    09:00 +12°C° 0 mm 3 mps 724 mmHg 18%
    10:00 +14°C° 0 mm 3 mps 724 mmHg 16%
    11:00 +17°C° 0 mm 3 mps 724 mmHg 15%
    12:00 +18°C° 0 mm 2 mps 723 mmHg 14%
    13:00 +20°C° 0 mm 1 mps 723 mmHg 14%
    14:00 +20°C° 0 mm 1 mps 723 mmHg 13%
    15:00 +21°C° 0 mm 1 mps 722 mmHg 13%
    16:00 +21°C° 0 mm 1 mps 722 mmHg 13%
    17:00 +20°C° 0 mm 1 mps 722 mmHg 14%
    18:00 +18°C° 0 mm 1 mps 723 mmHg 15%
    19:00 +16°C° 0 mm 2 mps 723 mmHg 16%
    20:00 +16°C° 0 mm 2 mps 723 mmHg 16%
    21:00 +15°C° 0 mm 2 mps 723 mmHg 17%
    22:00 +14°C° 0 mm 3 mps 724 mmHg 17%
    23:00 +13°C° 0 mm 3 mps 724 mmHg 17%

    27 January, Sunday

    Time Temperature Precipitation Wind Pressure Humidity
    00:00 +13°C° 0 mm 3 mps 723 mmHg 18%
    01:00 +12°C° 0 mm 3 mps 723 mmHg 18%
    02:00 +12°C° 0 mm 3 mps 723 mmHg 19%
    03:00 +11°C° 0 mm 3 mps 723 mmHg 19%
    04:00 +11°C° 0 mm 3 mps 723 mmHg 20%
    05:00 +11°C° 0 mm 3 mps 723 mmHg 21%
    06:00 +10°C° 0 mm 3 mps 724 mmHg 21%
    07:00 +10°C° 0 mm 4 mps 724 mmHg 22%
    08:00 +12°C° 0 mm 4 mps 725 mmHg 20%
    09:00 +14°C° 0 mm 4 mps 725 mmHg 18%
    10:00 +17°C° 0 mm 3 mps 726 mmHg 16%
    11:00 +18°C° 0 mm 3 mps 725 mmHg 16%
    12:00 +20°C° 0 mm 2 mps 725 mmHg 17%
    13:00 +22°C° 0 mm 1 mps 724 mmHg 17%
    14:00 +22°C° 0 mm 1 mps 724 mmHg 17%
    15:00 +22°C° 0 mm 1 mps 724 mmHg 18%
    16:00 +21°C° 0 mm 0 mps 723 mmHg 18%
    17:00 +21°C° 0 mm 1 mps 724 mmHg 20%
    18:00 +20°C° 0 mm 1 mps 724 mmHg 22%
    19:00 +18°C° 0 mm 2 mps 724 mmHg 23%
    20:00 +18°C° 0 mm 2 mps 724 mmHg 24%
    21:00 +17°C° 0 mm 3 mps 724 mmHg 24%
    22:00 +17°C° 0 mm 3 mps 724 mmHg 25%
    23:00 +16°C° 0 mm 3 mps 724 mmHg 25%

    28 January, Monday

    Time Temperature Precipitation Wind Pressure Humidity
    00:00 +16°C° 0 mm 3 mps 723 mmHg 26%
    01:00 +14°C° 0 mm 3 mps 723 mmHg 26%
    02:00 +14°C° 0 mm 3 mps 723 mmHg 27%
    03:00 +14°C° 0 mm 3 mps 723 mmHg 27%
    04:00 +13°C° 0 mm 4 mps 723 mmHg 28%
    05:00 +13°C° 0 mm 4 mps 723 mmHg 30%
    06:00 +13°C° 0 mm 4 mps 723 mmHg 32%
    07:00 +13°C° 0 mm 4 mps 724 mmHg 34%
    08:00 +15°C° 0 mm 4 mps 724 mmHg 31%
    09:00 +18°C° 0 mm 4 mps 725 mmHg 29%
    10:00 +20°C° 0 mm 4 mps 725 mmHg 26%
    11:00 +21°C° 0 mm 4 mps 725 mmHg 26%
    12:00 +24°C° 0 mm 3 mps 724 mmHg 26%
    13:00 +25°C° 0 mm 3 mps 723 mmHg 26%
    14:00 +25°C° 0 mm 3 mps 723 mmHg 25%
    15:00 +26°C° 0 mm 3 mps 723 mmHg 25%
    16:00 +26°C° 0 mm 2 mps 722 mmHg 24%
    17:00 +25°C° 0 mm 2 mps 722 mmHg 26%
    18:00 +23°C° 0 mm 2 mps 722 mmHg 28%
    19:00 +21°C° 0 mm 2 mps 722 mmHg 30%
    20:00 +21°C° 0 mm 3 mps 722 mmHg 30%
    21:00 +20°C° 0 mm 3 mps 722 mmHg 30%
    22:00 +19°C° 0 mm 4 mps 722 mmHg 31%
    23:00 +19°C° 0 mm 4 mps 721 mmHg 32%
    Show more